Location: Cardiff
(53.7833°N, 113.6000°W)
Time: 21:33:56
(UTC+00:00)

Oscar 19 - Pass Details

Date: 06 December 2023
Orbit: 771 x 789 km, 98.9° (Epoch: 04 March)

Event Time Altitude Azimuth Distance (km) Brightness Sun altitude
Rises 14:45:37 0° 8° (N) 3,273 13.6 -7.0°
Reaches altitude 10° 14:48:59 10° 344° (NNW) 2,344 12.7 -6.6°
Maximum altitude 14:51:37 14° 314° (NW) 2,060 12.2 -6.2°
Drops below altitude 10° 14:54:15 10° 283° (WNW) 2,344 12.5 -5.9°
Sets 14:57:37 0° 259° (W) 3,272 13.4 -5.5°
